| time (UTC) | temp F | wind direction | speed MPH | gust MPH | rain 1hr in | rain 24hr in | rain mn in | humidity % | barometer mb |
| 20260903223726 | 76 | 46 | 6.0 | 16.0 | 0.00 | 0.00 | 0.00 | 83 | 947.2 |
| 20260903223224 | 75 | 45 | 6.0 | 16.0 | 0.00 | 0.00 | 0.00 | 84 | 947.1 |
| 20260903222208 | 76 | 50 | 6.0 | 14.0 | 0.00 | 0.00 | 0.00 | 83 | 947.1 |
| 20260903221706 | 75 | 38 | 5.0 | 16.0 | 0.00 | 0.00 | 0.00 | 84 | 947.3 |
| 20260903221206 | 76 | 46 | 7.0 | 16.0 | 0.00 | 0.00 | 0.00 | 82 | 947.4 |
| 20260903220704 | 76 | 46 | 7.0 | 12.0 | 0.00 | 0.00 | 0.00 | 81 | 947.3 |
| 20260903220203 | 76 | 40 | 6.0 | 18.0 | 0.00 | 0.00 | 0.00 | 82 | 947.6 |
| 20260903215702 | 76 | 44 | 6.0 | 18.0 | 0.00 | 0.00 | 0.00 | 81 | 947.4 |
| 20260903214645 | 76 | 37 | 8.0 | 18.0 | 0.00 | 0.00 | 0.00 | 79 | 947.3 |
| 20260903214144 | 76 | 47 | 7.0 | 18.0 | 0.00 | 0.00 | 0.00 | 80 | 947.7 |
| 20260903213643 | 75 | 39 | 7.0 | 18.0 | 0.00 | 0.00 | 0.00 | 81 | 947.5 |
| 20260903213142 | 75 | 44 | 5.0 | 19.0 | 0.00 | 0.00 | 0.00 | 82 | 947.3 |
| 20260903212641 | 75 | 41 | 9.0 | 19.0 | 0.00 | 0.00 | 0.00 | 80 | 947.6 |
| 20260903212140 | 75 | 47 | 6.0 | 18.0 | 0.00 | 0.00 | 0.00 | 82 | 947.6 |
| 20260903211639 | 75 | 41 | 6.0 | 19.0 | 0.00 | 0.00 | 0.00 | 82 | 948.0 |
| 20260903211138 | 75 | 42 | 7.0 | 19.0 | 0.00 | 0.00 | 0.00 | 82 | 947.8 |
| 20260903210637 | 75 | 44 | 8.0 | 14.0 | 0.00 | 0.00 | 0.00 | 81 | 947.2 |
| 20260903210136 | 75 | 43 | 5.0 | 14.0 | 0.00 | 0.00 | 0.00 | 82 | 947.6 |
| 20260903205635 | 75 | 39 | 7.0 | 14.0 | 0.00 | 0.00 | 0.00 | 81 | 947.6 |
| 20260903205134 | 76 | 47 | 7.0 | 14.0 | 0.00 | 0.00 | 0.00 | 78 | 947.9 |
| 20260903204633 | 75 | 49 | 6.0 | 14.0 | 0.00 | 0.00 | 0.00 | 80 | 947.7 |
| 20260903204132 | 75 | 47 | 7.0 | 15.0 | 0.00 | 0.00 | 0.00 | 80 | 947.9 |
| 20260903203631 | 75 | 43 | 8.0 | 16.0 | 0.00 | 0.00 | 0.00 | 80 | 948.0 |
| 20260903202613 | 75 | 44 | 6.0 | 16.0 | 0.00 | 0.00 | 0.00 | 79 | 948.0 |
| 20260903202112 | 74 | 46 | 8.0 | 16.0 | 0.00 | 0.00 | 0.00 | 80 | 947.8 |
| 20260903201611 | 75 | 53 | 7.0 | 15.0 | 0.00 | 0.00 | 0.00 | 80 | 948.0 |
| 20260903201110 | 74 | 54 | 8.0 | 15.0 | 0.00 | 0.00 | 0.00 | 79 | 948.0 |
| 20260903200608 | 74 | 62 | 5.0 | 19.0 | 0.00 | 0.00 | 0.00 | 80 | 948.0 |
| 20260903195551 | 73 | 51 | 9.0 | 19.0 | 0.00 | 0.00 | 0.00 | 79 | 948.2 |
| 20260903195050 | 73 | 41 | 11.0 | 19.0 | 0.00 | 0.00 | 0.00 | 79 | 947.8 |
| 20260903194549 | 73 | 46 | 7.0 | 15.0 | 0.00 | 0.00 | 0.00 | 80 | 947.7 |
| 20260903194048 | 73 | 45 | 8.0 | 16.0 | 0.00 | 0.00 | 0.00 | 80 | 948.1 |
| 20260903193031 | 73 | 48 | 7.0 | 15.0 | 0.00 | 0.00 | 0.00 | 80 | 947.4 |
| 20260903192014 | 73 | 48 | 7.0 | 15.0 | 0.00 | 0.00 | 0.00 | 79 | 947.7 |
| 20260903191513 | 72 | 40 | 7.0 | 16.0 | 0.00 | 0.00 | 0.00 | 81 | 948.0 |
| 20260903191012 | 72 | 50 | 6.0 | 16.0 | 0.00 | 0.00 | 0.00 | 81 | 947.6 |
| 20260903190511 | 72 | 41 | 9.0 | 16.0 | 0.00 | 0.00 | 0.00 | 79 | 948.0 |
| 20260903185454 | 72 | 46 | 7.0 | 19.0 | 0.00 | 0.00 | 0.00 | 81 | 948.0 |
| 20260903184953 | 71 | 59 | 7.0 | 18.0 | 0.00 | 0.00 | 0.00 | 81 | 947.7 |
| 20260903184452 | 71 | 57 | 6.0 | 18.0 | 0.00 | 0.00 | 0.00 | 81 | 947.7 |
| 20260903183951 | 71 | 42 | 7.0 | 20.0 | 0.00 | 0.00 | 0.00 | 81 | 948.1 |
| 20260903183450 | 71 | 57 | 8.0 | 20.0 | 0.00 | 0.00 | 0.00 | 81 | 947.8 |
| 20260903182433 | 71 | 51 | 7.0 | 15.0 | 0.00 | 0.00 | 0.00 | 80 | 947.6 |
| 20260903181416 | 70 | 48 | 8.0 | 14.0 | 0.00 | 0.00 | 0.00 | 79 | 947.4 |
| 20260903180915 | 70 | 52 | 6.0 | 15.0 | 0.00 | 0.00 | 0.00 | 80 | 947.5 |
| 20260903180414 | 70 | 45 | 7.0 | 19.0 | 0.00 | 0.00 | 0.00 | 81 | 947.6 |
| 20260903175912 | 70 | 49 | 6.0 | 19.0 | 0.00 | 0.00 | 0.00 | 81 | 947.6 |
| 20260903175411 | 69 | 56 | 6.0 | 14.0 | 0.00 | 0.00 | 0.00 | 81 | 947.3 |
| 20260903174910 | 69 | 47 | 6.0 | 14.0 | 0.00 | 0.00 | 0.00 | 82 | 947.1 |
| 20260903174408 | 69 | 53 | 7.0 | 13.0 | 0.00 | 0.00 | 0.00 | 82 | 947.3 |
| 20260903173907 | 68 | 52 | 5.0 | 14.0 | 0.00 | 0.00 | 0.00 | 83 | 947.2 |
| 20260903173406 | 68 | 47 | 7.0 | 14.0 | 0.00 | 0.00 | 0.00 | 84 | 947.5 |
| 20260903172905 | 68 | 54 | 6.0 | 14.0 | 0.00 | 0.00 | 0.00 | 84 | 947.2 |
| 20260903172404 | 68 | 49 | 7.0 | 14.0 | 0.00 | 0.00 | 0.00 | 84 | 947.2 |
| 20260903171903 | 68 | 50 | 6.0 | 14.0 | 0.00 | 0.00 | 0.00 | 84 | 947.3 |
| 20260903171402 | 67 | 49 | 7.0 | 14.0 | 0.00 | 0.00 | 0.00 | 83 | 946.9 |
| 20260903170901 | 67 | 51 | 7.0 | 14.0 | 0.00 | 0.00 | 0.00 | 83 | 946.8 |
| 20260903170400 | 67 | 47 | 7.0 | 15.0 | 0.00 | 0.00 | 0.00 | 83 | 947.2 |
| 20260903165859 | 67 | 43 | 7.0 | 15.0 | 0.00 | 0.00 | 0.00 | 83 | 947.1 |
| 20260903165358 | 67 | 45 | 8.0 | 15.0 | 0.00 | 0.00 | 0.00 | 83 | 946.8 |
| 20260903164341 | 66 | 46 | 6.0 | 15.0 | 0.00 | 0.00 | 0.00 | 84 | 947.0 |
| 20260903163840 | 66 | 49 | 8.0 | 15.0 | 0.00 | 0.00 | 0.00 | 84 | 947.1 |
| 20260903163339 | 66 | 48 | 5.0 | 14.0 | 0.00 | 0.00 | 0.00 | 84 | 947.1 |
| 20260903162837 | 66 | 45 | 6.0 | 14.0 | 0.00 | 0.00 | 0.00 | 84 | 946.8 |
| 20260903162336 | 66 | 59 | 6.0 | 14.0 | 0.00 | 0.00 | 0.00 | 84 | 946.8 |
| 20260903161835 | 66 | 51 | 6.0 | 14.0 | 0.00 | 0.00 | 0.00 | 83 | 947.2 |
| 20260903161334 | 66 | 48 | 7.0 | 13.0 | 0.00 | 0.00 | 0.00 | 83 | 947.1 |
| 20260903160833 | 66 | 48 | 7.0 | 20.0 | 0.00 | 0.00 | 0.00 | 83 | 947.0 |
| 20260903160332 | 66 | 44 | 6.0 | 20.0 | 0.00 | 0.00 | 0.00 | 84 | 947.5 |
| 20260903155315 | 66 | 48 | 6.0 | 13.0 | 0.00 | 0.00 | 0.00 | 84 | 947.0 |
| 20260903154814 | 66 | 48 | 7.0 | 13.0 | 0.00 | 0.00 | 0.00 | 84 | 946.6 |
| 20260903154313 | 66 | 55 | 5.0 | 14.0 | 0.00 | 0.00 | 0.00 | 83 | 946.5 |
| 20260903153812 | 66 | 45 | 8.0 | 14.0 | 0.00 | 0.00 | 0.00 | 83 | 946.6 |
| 20260903153311 | 66 | 50 | 6.0 | 13.0 | 0.00 | 0.00 | 0.00 | 83 | 946.7 |
| 20260903152809 | 66 | 50 | 6.0 | 14.0 | 0.00 | 0.00 | 0.00 | 83 | 947.0 |
| 20260903151235 | 66 | 60 | 5.0 | 13.0 | 0.00 | 0.00 | 0.00 | 82 | 946.6 |
| 20260903150734 | 66 | 61 | 7.0 | 19.0 | 0.00 | 0.00 | 0.00 | 83 | 946.7 |
| 20260903145717 | 66 | 57 | 7.0 | 18.0 | 0.00 | 0.00 | 0.00 | 84 | 946.4 |
| 20260903145216 | 65 | 55 | 5.0 | 13.0 | 0.00 | 0.00 | 0.00 | 85 | 946.5 |
| 20260903144714 | 65 | 50 | 6.0 | 13.0 | 0.00 | 0.00 | 0.00 | 85 | 946.8 |
| 20260903144213 | 65 | 52 | 5.0 | 14.0 | 0.00 | 0.00 | 0.00 | 85 | 946.5 |
| 20260903143712 | 66 | 54 | 6.0 | 14.0 | 0.00 | 0.00 | 0.00 | 84 | 947.1 |
| 20260903143211 | 65 | 63 | 5.0 | 13.0 | 0.00 | 0.00 | 0.00 | 84 | 946.8 |
| 20260903142710 | 65 | 72 | 5.0 | 13.0 | 0.00 | 0.00 | 0.00 | 85 | 946.8 |
| 20260903142209 | 65 | 59 | 6.0 | 13.0 | 0.00 | 0.00 | 0.00 | 85 | 946.6 |
| 20260903141708 | 65 | 47 | 6.0 | 13.0 | 0.00 | 0.00 | 0.00 | 85 | 946.7 |
| 20260903141207 | 65 | 49 | 7.0 | 13.0 | 0.00 | 0.00 | 0.00 | 86 | 946.4 |
| 20260903140706 | 65 | 47 | 5.0 | 13.0 | 0.00 | 0.00 | 0.00 | 86 | 946.6 |
| 20260903140205 | 65 | 46 | 4.0 | 13.0 | 0.00 | 0.00 | 0.00 | 86 | 946.8 |
| 20260903135704 | 65 | 53 | 4.0 | 13.0 | 0.00 | 0.00 | 0.00 | 86 | 947.0 |
| 20260903134131 | 65 | 59 | 6.0 | 15.0 | 0.00 | 0.00 | 0.00 | 86 | 946.9 |
| 20260903133630 | 65 | 62 | 5.0 | 16.0 | 0.00 | 0.00 | 0.00 | 86 | 946.9 |
| 20260903133129 | 65 | 65 | 7.0 | 16.0 | 0.00 | 0.00 | 0.00 | 86 | 946.8 |
| 20260903132628 | 65 | 55 | 6.0 | 14.0 | 0.00 | 0.00 | 0.00 | 87 | 946.8 |
| 20260903131611 | 65 | 60 | 7.0 | 16.0 | 0.00 | 0.00 | 0.00 | 89 | 946.6 |
| 20260903131109 | 65 | 56 | 6.0 | 13.0 | 0.00 | 0.00 | 0.00 | 90 | 946.8 |
| 20260903130609 | 65 | 52 | 6.0 | 14.0 | 0.00 | 0.00 | 0.00 | 90 | 947.3 |
| 20260903130107 | 66 | 55 | 6.0 | 15.0 | 0.00 | 0.00 | 0.00 | 90 | 946.9 |
| 20260903125605 | 66 | 60 | 5.0 | 16.0 | 0.00 | 0.00 | 0.00 | 90 | 947.0 |
| 20260903124548 | 66 | 62 | 7.0 | 22.0 | 0.00 | 0.00 | 0.00 | 91 | 947.2 |
| 20260903124047 | 66 | 58 | 7.0 | 22.0 | 0.00 | 0.00 | 0.00 | 91 | 947.0 |
| 20260903123546 | 66 | 61 | 7.0 | 15.0 | 0.00 | 0.00 | 0.00 | 92 | 947.1 |
| 20260903123045 | 66 | 59 | 7.0 | 21.0 | 0.00 | 0.00 | 0.00 | 92 | 947.1 |
| 20260903122544 | 66 | 64 | 9.0 | 21.0 | 0.00 | 0.00 | 0.00 | 93 | 946.9 |
| 20260903122043 | 66 | 56 | 8.0 | 20.0 | 0.00 | 0.00 | 0.00 | 93 | 946.7 |
| 20260903121026 | 66 | 56 | 8.0 | 19.0 | 0.00 | 0.00 | 0.00 | 93 | 947.1 |
| 20260903120525 | 66 | 61 | 9.0 | 20.0 | 0.00 | 0.00 | 0.00 | 92 | 946.9 |
| 20260903120023 | 66 | 55 | 8.0 | 20.0 | 0.00 | 0.00 | 0.00 | 92 | 947.0 |
| 20260903115522 | 66 | 59 | 9.0 | 18.0 | 0.00 | 0.00 | 0.00 | 92 | 946.7 |
| 20260903115021 | 66 | 54 | 8.0 | 20.0 | 0.00 | 0.00 | 0.00 | 92 | 946.6 |
| 20260903114004 | 66 | 63 | 8.0 | 19.0 | 0.00 | 0.00 | 0.00 | 91 | 947.0 |
| 20260903113503 | 66 | 61 | 7.0 | 21.0 | 0.00 | 0.00 | 0.00 | 91 | 947.3 |
| 20260903113002 | 66 | 62 | 8.0 | 21.0 | 0.00 | 0.00 | 0.00 | 91 | 947.3 |
| 20260903112501 | 66 | 59 | 8.0 | 21.0 | 0.00 | 0.00 | 0.00 | 91 | 947.5 |
| 20260903112000 | 66 | 65 | 9.0 | 21.0 | 0.00 | 0.00 | 0.00 | 92 | 947.3 |
| 20260903111459 | 66 | 62 | 7.0 | 16.0 | 0.00 | 0.00 | 0.00 | 92 | 947.3 |
| 20260903110442 | 66 | 69 | 7.0 | 20.0 | 0.00 | 0.00 | 0.00 | 92 | 947.4 |
| 20260903105941 | 66 | 60 | 8.0 | 20.0 | 0.00 | 0.00 | 0.00 | 92 | 947.3 |
| 20260903105440 | 66 | 67 | 7.0 | 24.0 | 0.00 | 0.00 | 0.00 | 92 | 947.2 |
| 20260903104939 | 66 | 55 | 8.0 | 24.0 | 0.00 | 0.00 | 0.00 | 91 | 947.1 |
| 20260903104438 | 66 | 66 | 9.0 | 20.0 | 0.00 | 0.00 | 0.00 | 92 | 947.4 |
| 20260903102905 | 67 | 57 | 9.0 | 23.0 | 0.00 | 0.00 | 0.00 | 93 | 948.0 |
| 20260903102404 | 67 | 60 | 8.0 | 23.0 | 0.00 | 0.00 | 0.00 | 93 | 947.6 |
| 20260903101347 | 67 | 68 | 9.0 | 21.0 | 0.00 | 0.00 | 0.00 | 95 | 947.8 |
| 20260903100846 | 67 | 61 | 7.0 | 16.0 | 0.00 | 0.00 | 0.00 | 96 | 947.7 |
| 20260903100345 | 67 | 54 | 8.0 | 20.0 | 0.00 | 0.00 | 0.00 | 96 | 947.7 |
| 20260903095845 | 67 | 63 | 7.0 | 20.0 | 0.00 | 0.00 | 0.00 | 96 | 947.8 |
| 20260903095344 | 67 | 70 | 7.0 | 18.0 | 0.00 | 0.00 | 0.00 | 96 | 948.1 |
| 20260903094843 | 67 | 85 | 10.0 | 22.0 | 0.00 | 0.00 | 0.00 | 96 | 948.0 |
| 20260903092238 | 68 | 61 | 7.0 | 16.0 | 0.00 | 0.00 | 0.00 | 96 | 947.9 |
| 20260903091737 | 68 | 77 | 6.0 | 16.0 | 0.00 | 0.00 | 0.00 | 97 | 948.0 |
| 20260903091236 | 67 | 67 | 7.0 | 19.0 | 0.00 | 0.00 | 0.00 | 96 | 948.1 |
| 20260903090735 | 67 | 71 | 8.0 | 19.0 | 0.00 | 0.00 | 0.00 | 97 | 947.9 |
| 20260903085201 | 68 | 68 | 8.0 | 23.0 | 0.00 | 0.00 | 0.00 | 97 | 948.0 |
| 20260903084700 | 68 | 68 | 9.0 | 23.0 | 0.00 | 0.00 | 0.00 | 97 | 947.7 |
| 20260903084200 | 68 | 55 | 6.0 | 14.0 | 0.00 | 0.00 | 0.00 | 96 | 947.7 |
| 20260903083658 | 68 | 56 | 5.0 | 19.0 | 0.00 | 0.00 | 0.00 | 96 | 948.0 |
| 20260903083157 | 67 | 69 | 9.0 | 19.0 | 0.00 | 0.00 | 0.00 | 97 | 947.7 |
| 20260903082657 | 67 | 70 | 6.0 | 22.0 | 0.00 | 0.00 | 0.00 | 96 | 947.9 |
| 20260903082155 | 67 | 71 | 7.0 | 22.0 | 0.00 | 0.00 | 0.00 | 96 | 947.8 |
| 20260903081654 | 68 | 75 | 6.0 | 18.0 | 0.00 | 0.00 | 0.00 | 96 | 948.2 |
| 20260903081154 | 68 | 66 | 8.0 | 19.0 | 0.00 | 0.00 | 0.00 | 97 | 948.2 |
| 20260903080653 | 68 | 73 | 6.0 | 19.0 | 0.00 | 0.00 | 0.00 | 97 | 948.0 |
| 20260903075635 | 68 | 74 | 8.0 | 19.0 | 0.00 | 0.00 | 0.00 | 97 | 948.1 |
| 20260903074619 | 68 | 78 | 6.0 | 15.0 | 0.00 | 0.00 | 0.00 | 97 | 948.3 |
| 20260903074118 | 68 | 73 | 6.0 | 15.0 | 0.00 | 0.00 | 0.00 | 97 | 948.3 |
| 20260903073101 | 68 | 84 | 6.0 | 20.0 | 0.00 | 0.00 | 0.00 | 97 | 948.2 |
| 20260903072600 | 68 | 67 | 7.0 | 20.0 | 0.00 | 0.00 | 0.00 | 97 | 947.9 |
| 20260903072059 | 68 | 73 | 8.0 | 20.0 | 0.00 | 0.00 | 0.00 | 97 | 948.0 |
| 20260903070526 | 68 | 53 | 5.0 | 19.0 | 0.00 | 0.00 | 0.00 | 97 | 948.0 |
| 20260903070025 | 68 | 55 | 5.0 | 19.0 | 0.00 | 0.00 | 0.00 | 97 | 947.9 |
| 20260903065523 | 68 | 63 | 6.0 | 15.0 | 0.00 | 0.00 | 0.00 | 97 | 948.1 |
| 20260903064506 | 68 | 46 | 8.0 | 15.0 | 0.00 | 0.00 | 0.00 | 96 | 948.1 |
| 20260903064005 | 68 | 50 | 6.0 | 18.0 | 0.00 | 0.00 | 0.00 | 96 | 947.7 |
| 20260903063504 | 68 | 57 | 8.0 | 18.0 | 0.00 | 0.00 | 0.00 | 96 | 947.6 |
| 20260903063002 | 68 | 61 | 8.0 | 18.0 | 0.00 | 0.00 | 0.00 | 96 | 948.0 |
| 20260903062501 | 68 | 51 | 7.0 | 18.0 | 0.00 | 0.00 | 0.00 | 96 | 947.6 |
| 20260903062000 | 68 | 67 | 9.0 | 18.0 | 0.00 | 0.00 | 0.00 | 96 | 947.7 |
| 20260903061459 | 68 | 66 | 6.0 | 18.0 | 0.00 | 0.00 | 0.00 | 96 | 947.8 |
| 20260903060958 | 68 | 56 | 6.0 | 14.0 | 0.00 | 0.00 | 0.00 | 95 | 947.6 |
| 20260903060457 | 68 | 64 | 6.0 | 14.0 | 0.00 | 0.00 | 0.00 | 95 | 947.2 |
| 20260903055956 | 68 | 54 | 6.0 | 14.0 | 0.00 | 0.00 | 0.00 | 94 | 947.4 |
| 20260903055455 | 69 | 62 | 6.0 | 14.0 | 0.00 | 0.00 | 0.00 | 95 | 947.4 |
| 20260903054954 | 69 | 67 | 7.0 | 12.0 | 0.00 | 0.00 | 0.00 | 95 | 947.5 |
| 20260903054453 | 69 | 66 | 6.0 | 16.0 | 0.00 | 0.00 | 0.00 | 95 | 947.3 |
| 20260903053952 | 69 | 61 | 6.0 | 16.0 | 0.00 | 0.00 | 0.00 | 95 | 947.3 |
| 20260903053451 | 69 | 57 | 5.0 | 14.0 | 0.00 | 0.00 | 0.00 | 94 | 947.4 |
| 20260903052949 | 68 | 67 | 4.0 | 15.0 | 0.00 | 0.00 | 0.00 | 95 | 947.3 |
| 20260903052448 | 68 | 63 | 4.0 | 15.0 | 0.00 | 0.00 | 0.00 | 94 | 947.4 |
| 20260903051947 | 68 | 64 | 4.0 | 13.0 | 0.00 | 0.00 | 0.00 | 94 | 947.2 |
| 20260903051446 | 68 | 54 | 5.0 | 14.0 | 0.00 | 0.00 | 0.00 | 94 | 947.2 |
| 20260903050945 | 68 | 63 | 7.0 | 15.0 | 0.00 | 0.00 | 0.00 | 94 | 947.6 |
| 20260903045928 | 69 | 71 | 5.0 | 14.0 | 0.00 | 0.00 | 0.00 | 93 | 947.5 |
| 20260903044355 | 69 | 68 | 6.0 | 16.0 | 0.00 | 0.00 | 0.00 | 91 | 947.3 |
| 20260903043854 | 69 | 50 | 5.0 | 14.0 | 0.00 | 0.00 | 0.00 | 90 | 947.0 |
| 20260903043353 | 69 | 58 | 4.0 | 14.0 | 0.00 | 0.00 | 0.00 | 90 | 947.2 |
| 20260903042852 | 69 | 55 | 5.0 | 14.0 | 0.00 | 0.00 | 0.00 | 89 | 947.1 |
| 20260903042351 | 70 | 53 | 6.0 | 14.0 | 0.00 | 0.00 | 0.00 | 90 | 947.1 |
| 20260903041850 | 70 | 62 | 5.0 | 13.0 | 0.00 | 0.00 | 0.00 | 90 | 946.9 |
| 20260903040833 | 70 | 46 | 6.0 | 13.0 | 0.00 | 0.00 | 0.00 | 89 | 946.9 |
| 20260903040332 | 70 | 43 | 5.0 | 13.0 | 0.00 | 0.00 | 0.00 | 89 | 946.6 |
| 20260903035831 | 71 | 50 | 6.0 | 15.0 | 0.00 | 0.00 | 0.00 | 89 | 946.6 |
| 20260903034814 | 71 | 51 | 5.0 | 14.0 | 0.00 | 0.00 | 0.00 | 88 | 946.5 |
| 20260903034313 | 71 | 53 | 6.0 | 13.0 | 0.00 | 0.00 | 0.00 | 88 | 946.4 |
| 20260903033812 | 72 | 49 | 6.0 | 14.0 | 0.00 | 0.00 | 0.00 | 87 | 946.8 |
| 20260903033311 | 72 | 57 | 6.0 | 16.0 | 0.00 | 0.00 | 0.00 | 86 | 946.7 |
| 20260903032810 | 72 | 53 | 6.0 | 16.0 | 0.00 | 0.00 | 0.00 | 86 | 946.6 |
| 20260903032309 | 72 | 49 | 7.0 | 14.0 | 0.00 | 0.00 | 0.00 | 85 | 946.6 |
| 20260903031808 | 72 | 53 | 6.0 | 15.0 | 0.00 | 0.00 | 0.00 | 85 | 946.2 |
| 20260903030751 | 73 | 48 | 6.0 | 15.0 | 0.00 | 0.00 | 0.00 | 85 | 946.6 |
| 20260903025734 | 73 | 54 | 6.0 | 15.0 | 0.00 | 0.00 | 0.00 | 86 | 946.3 |
| 20260903025233 | 73 | 46 | 8.0 | 15.0 | 0.00 | 0.00 | 0.00 | 84 | 946.6 |
| 20260903024216 | 73 | 56 | 7.0 | 13.0 | 0.00 | 0.00 | 0.00 | 83 | 946.4 |
| 20260903023159 | 73 | 51 | 7.0 | 16.0 | 0.00 | 0.00 | 0.00 | 83 | 946.8 |
| 20260903022658 | 74 | 55 | 7.0 | 15.0 | 0.00 | 0.00 | 0.00 | 83 | 946.4 |
| 20260903022157 | 74 | 52 | 6.0 | 14.0 | 0.00 | 0.00 | 0.00 | 82 | 946.5 |
| 20260903021655 | 74 | 52 | 5.0 | 16.0 | 0.00 | 0.00 | 0.00 | 82 | 946.3 |
| 20260903021154 | 74 | 47 | 7.0 | 16.0 | 0.00 | 0.00 | 0.00 | 82 | 946.5 |
| 20260903020653 | 74 | 45 | 7.0 | 15.0 | 0.00 | 0.00 | 0.00 | 82 | 946.5 |
| 20260903020152 | 75 | 61 | 8.0 | 18.0 | 0.00 | 0.00 | 0.00 | 82 | 946.5 |
| 20260903015651 | 75 | 49 | 6.0 | 18.0 | 0.00 | 0.00 | 0.00 | 83 | 946.4 |
| 20260903014634 | 75 | 52 | 7.0 | 13.0 | 0.00 | 0.00 | 0.00 | 82 | 946.4 |
| 20260903014132 | 75 | 45 | 5.0 | 14.0 | 0.00 | 0.00 | 0.00 | 82 | 946.2 |
| 20260903013115 | 76 | 55 | 6.0 | 14.0 | 0.00 | 0.00 | 0.00 | 82 | 946.6 |
| 20260903012614 | 76 | 46 | 6.0 | 14.0 | 0.00 | 0.00 | 0.00 | 80 | 946.1 |
| 20260903011557 | 76 | 55 | 6.0 | 18.0 | 0.00 | 0.00 | 0.00 | 81 | 946.4 |
| 20260903011056 | 76 | 47 | 7.0 | 18.0 | 0.00 | 0.00 | 0.00 | 80 | 946.5 |
| 20260903010555 | 76 | 47 | 7.0 | 18.0 | 0.00 | 0.00 | 0.00 | 80 | 946.2 |
| 20260903010054 | 77 | 49 | 7.0 | 18.0 | 0.00 | 0.00 | 0.00 | 80 | 946.6 |
| 20260903005553 | 77 | 53 | 5.0 | 13.0 | 0.00 | 0.00 | 0.00 | 81 | 946.7 |
| 20260903005052 | 77 | 54 | 6.0 | 13.0 | 0.00 | 0.00 | 0.00 | 79 | 946.6 |
| 20260903004551 | 77 | 56 | 7.0 | 18.0 | 0.00 | 0.00 | 0.00 | 79 | 946.5 |
| 20260903004050 | 77 | 50 | 6.0 | 18.0 | 0.00 | 0.00 | 0.00 | 81 | 946.7 |
| 20260903003549 | 77 | 43 | 6.0 | 16.0 | 0.00 | 0.00 | 0.00 | 80 | 946.4 |
| 20260903003048 | 77 | 44 | 6.0 | 15.0 | 0.00 | 0.00 | 0.00 | 80 | 946.7 |
| 20260903002547 | 77 | 49 | 6.0 | 16.0 | 0.00 | 0.00 | 0.00 | 80 | 946.5 |
| 20260903002046 | 77 | 50 | 6.0 | 16.0 | 0.00 | 0.00 | 0.00 | 81 | 946.6 |
| 20260903001544 | 77 | 42 | 6.0 | 16.0 | 0.00 | 0.00 | 0.00 | 81 | 946.5 |
| 20260903001043 | 77 | 46 | 8.0 | 20.0 | 0.00 | 0.00 | 0.00 | 79 | 946.6 |
| 20260903000542 | 77 | 50 | 8.0 | 20.0 | 0.00 | 0.00 | 0.00 | 80 | 946.6 |
| 20260903000041 | 77 | 44 | 8.0 | 15.0 | 0.00 | 0.00 | 0.00 | 79 | 946.6 |
| 20260902235540 | 77 | 54 | 5.0 | 15.0 | 0.00 | 0.00 | 0.00 | 81 | 946.5 |
| 20260902235039 | 77 | 34 | 8.0 | 16.0 | 0.00 | 0.00 | 0.00 | 80 | 946.8 |
| 20260902234538 | 77 | 48 | 8.0 | 16.0 | 0.00 | 0.00 | 0.00 | 81 | 946.7 |
| 20260902233521 | 77 | 46 | 7.0 | 15.0 | 0.00 | 0.00 | 0.00 | 81 | 946.7 |
| 20260902233020 | 77 | 50 | 5.0 | 16.0 | 0.00 | 0.00 | 0.00 | 82 | 946.9 |
| 20260902232518 | 77 | 47 | 10.0 | 16.0 | 0.00 | 0.00 | 0.00 | 80 | 947.2 |
| 20260902232017 | 77 | 59 | 8.0 | 14.0 | 0.00 | 0.00 | 0.00 | 82 | 947.1 |
| 20260902231516 | 77 | 62 | 8.0 | 19.0 | 0.00 | 0.00 | 0.00 | 82 | 947.6 |
| 20260902231014 | 77 | 51 | 8.0 | 22.0 | 0.00 | 0.00 | 0.00 | 82 | 947.2 |
| 20260902225957 | 77 | 49 | 5.0 | 15.0 | 0.00 | 0.00 | 0.00 | 81 | 947.3 |
| 20260902224940 | 77 | 51 | 6.0 | 20.0 | 0.00 | 0.00 | 0.00 | 82 | 947.4 |